When you browse on this site, cookies collect data to enhance your experience and personalize the content and advertising you see.
Visit our Privacy Policy to learn more. By continuing to use the site, you agree to this use of cookies and data.
  • In Italy
  • List of Countries
  • For 7 days
  • Water Temperature
  • Satellite Maps
  • Weather Map
  • Weather Widgets
  • user-avatar
    Login

    Hourly Weather Newcastle

    Today, 15 December, Saturday

    Time Temperature Precipitation Wind Pressure Humidity
    00:00 +22°C° 0.3 mm 5 mps 753 mmHg 96%
    01:00 +22°C° 0.3 mm 5 mps 753 mmHg 96%
    02:00 +22°C° 0.1 mm 5 mps 753 mmHg 96%
    03:00 +22°C° 0.1 mm 5 mps 753 mmHg 96%
    04:00 +21°C° 0 mm 3 mps 753 mmHg 98%
    05:00 +22°C° 0 mm 3 mps 753 mmHg 94%
    06:00 +24°C° 0 mm 3 mps 753 mmHg 90%
    07:00 +25°C° 0 mm 3 mps 754 mmHg 86%
    08:00 +28°C° 0 mm 4 mps 754 mmHg 75%
    09:00 +30°C° 0 mm 4 mps 754 mmHg 63%
    10:00 +34°C° 0 mm 5 mps 754 mmHg 52%
    11:00 +33°C° 1.4 mm 5 mps 754 mmHg 57%
    12:00 +33°C° 1.4 mm 5 mps 754 mmHg 62%
    13:00 +33°C° 1.4 mm 5 mps 753 mmHg 67%
    14:00 +32°C° 1.6 mm 6 mps 753 mmHg 70%
    15:00 +30°C° 1.6 mm 6 mps 753 mmHg 73%
    16:00 +29°C° 0 mm 6 mps 752 mmHg 76%
    17:00 +28°C° 0.8 mm 6 mps 753 mmHg 79%
    18:00 +27°C° 0.8 mm 6 mps 753 mmHg 82%
    19:00 +26°C° 0.8 mm 6 mps 753 mmHg 85%
    20:00 +26°C° 0.1 mm 7 mps 754 mmHg 86%
    21:00 +24°C° 0.1 mm 7 mps 754 mmHg 86%
    22:00 +23°C° 0 mm 6 mps 755 mmHg 91%
    23:00 +23°C° 0 mm 6 mps 754 mmHg 90%

    Tomorrow, 16 December, Sunday

    Time Temperature Precipitation Wind Pressure Humidity
    00:00 +23°C° 0 mm 6 mps 754 mmHg 89%
    01:00 +23°C° 0 mm 6 mps 754 mmHg 89%
    02:00 +23°C° 0 mm 6 mps 754 mmHg 90%
    03:00 +22°C° 0 mm 5 mps 755 mmHg 91%
    04:00 +22°C° 0 mm 5 mps 755 mmHg 93%
    05:00 +23°C° 0 mm 5 mps 755 mmHg 87%
    06:00 +25°C° 0 mm 5 mps 755 mmHg 81%
    07:00 +27°C° 0 mm 5 mps 755 mmHg 75%
    08:00 +29°C° 0 mm 5 mps 755 mmHg 66%
    09:00 +32°C° 0 mm 5 mps 755 mmHg 56%
    10:00 +35°C° 0 mm 6 mps 755 mmHg 46%
    11:00 +34°C° 0.3 mm 6 mps 755 mmHg 48%
    12:00 +34°C° 0.3 mm 7 mps 755 mmHg 51%
    13:00 +34°C° 0.3 mm 7 mps 754 mmHg 53%
    14:00 +32°C° 0.8 mm 8 mps 754 mmHg 59%
    15:00 +31°C° 0.8 mm 8 mps 754 mmHg 65%
    16:00 +28°C° 0.8 mm 9 mps 754 mmHg 72%
    17:00 +28°C° 0 mm 9 mps 754 mmHg 73%
    18:00 +27°C° 0 mm 8 mps 754 mmHg 74%
    19:00 +27°C° 0 mm 8 mps 754 mmHg 75%
    20:00 +26°C° 0.1 mm 8 mps 754 mmHg 77%
    21:00 +24°C° 0.1 mm 7 mps 754 mmHg 79%
    22:00 +24°C° 0.1 mm 7 mps 755 mmHg 80%
    23:00 +23°C° 0.1 mm 6 mps 755 mmHg 81%

    Day after tomorrow, 17 December, Monday

    Time Temperature Precipitation Wind Pressure Humidity
    00:00 +23°C° 0.1 mm 6 mps 754 mmHg 83%
    01:00 +22°C° 0.1 mm 5 mps 754 mmHg 84%
    02:00 +22°C° 0.1 mm 4 mps 754 mmHg 86%
    03:00 +22°C° 0.1 mm 4 mps 754 mmHg 88%
    04:00 +21°C° 0.1 mm 4 mps 754 mmHg 90%
    05:00 +23°C° 0 mm 4 mps 755 mmHg 84%
    06:00 +25°C° 0 mm 4 mps 755 mmHg 78%
    07:00 +27°C° 0 mm 4 mps 756 mmHg 72%
    08:00 +29°C° 0 mm 4 mps 756 mmHg 63%
    09:00 +33°C° 0 mm 3 mps 756 mmHg 53%
    10:00 +36°C° 0 mm 3 mps 756 mmHg 44%
    11:00 +35°C° 0 mm 4 mps 755 mmHg 44%
    12:00 +35°C° 0 mm 4 mps 755 mmHg 43%
    13:00 +35°C° 0 mm 5 mps 755 mmHg 43%
    14:00 +34°C° 0 mm 5 mps 755 mmHg 47%
    15:00 +34°C° 0 mm 5 mps 754 mmHg 51%
    16:00 +33°C° 0 mm 6 mps 754 mmHg 55%
    17:00 +32°C° 0 mm 6 mps 755 mmHg 60%
    18:00 +30°C° 0 mm 6 mps 755 mmHg 65%
    19:00 +28°C° 0 mm 6 mps 755 mmHg 70%
    20:00 +28°C° 0 mm 6 mps 756 mmHg 74%
    21:00 +27°C° 0 mm 5 mps 756 mmHg 78%
    22:00 +26°C° 0 mm 5 mps 757 mmHg 82%
    23:00 +25°C° 0 mm 4 mps 757 mmHg 85%

    18 December, Tuesday

    Time Temperature Precipitation Wind Pressure Humidity
    00:00 +23°C° 0 mm 4 mps 757 mmHg 88%
    01:00 +24°C° 0 mm 3 mps 756 mmHg 91%
    02:00 +23°C° 0 mm 2 mps 757 mmHg 93%
    03:00 +23°C° 0 mm 2 mps 757 mmHg 94%
    04:00 +23°C° 0 mm 2 mps 757 mmHg 95%
    05:00 +24°C° 0 mm 2 mps 757 mmHg 93%
    06:00 +24°C° 0 mm 2 mps 758 mmHg 90%
    07:00 +25°C° 0 mm 2 mps 758 mmHg 88%
    08:00 +25°C° 0 mm 3 mps 758 mmHg 85%
    09:00 +26°C° 0 mm 3 mps 758 mmHg 82%
    10:00 +26°C° 0 mm 4 mps 759 mmHg 79%
    11:00 +28°C° 0 mm 4 mps 758 mmHg 73%
    12:00 +29°C° 0 mm 4 mps 758 mmHg 66%
    13:00 +32°C° 0 mm 4 mps 757 mmHg 60%
    14:00 +32°C° 0 mm 4 mps 757 mmHg 61%
    15:00 +30°C° 0 mm 4 mps 757 mmHg 61%
    16:00 +30°C° 0 mm 3 mps 757 mmHg 62%
    17:00 +29°C° 0 mm 3 mps 757 mmHg 71%
    18:00 +27°C° 0 mm 3 mps 758 mmHg 79%
    19:00 +25°C° 0 mm 3 mps 759 mmHg 87%
    20:00 +24°C° 0 mm 3 mps 759 mmHg 90%
    21:00 +24°C° 0 mm 3 mps 760 mmHg 92%
    22:00 +24°C° 0 mm 3 mps 760 mmHg 94%
    23:00 +22°C° 0 mm 3 mps 760 mmHg 94%

    19 December, Wednesday

    Time Temperature Precipitation Wind Pressure Humidity
    00:00 +22°C° 0 mm 4 mps 759 mmHg 94%
    01:00 +22°C° 0 mm 4 mps 759 mmHg 94%
    02:00 +22°C° 0.1 mm 4 mps 759 mmHg 94%
    03:00 +21°C° 0.1 mm 4 mps 759 mmHg 94%
    04:00 +21°C° 0.1 mm 4 mps 759 mmHg 94%
    05:00 +21°C° 0.1 mm 4 mps 760 mmHg 94%
    06:00 +21°C° 0.1 mm 4 mps 760 mmHg 94%
    07:00 +21°C° 0.1 mm 4 mps 760 mmHg 93%
    08:00 +22°C° 0.1 mm 3 mps 760 mmHg 88%
    09:00 +25°C° 0.1 mm 3 mps 760 mmHg 83%
    10:00 +26°C° 0.1 mm 3 mps 760 mmHg 77%
    11:00 +26°C° 0 mm 3 mps 759 mmHg 74%
    12:00 +27°C° 0 mm 3 mps 759 mmHg 72%
    13:00 +28°C° 0 mm 4 mps 758 mmHg 69%
    14:00 +27°C° 0 mm 4 mps 758 mmHg 70%
    15:00 +27°C° 0 mm 4 mps 758 mmHg 72%
    16:00 +27°C° 0 mm 4 mps 757 mmHg 73%
    17:00 +26°C° 0.5 mm 4 mps 757 mmHg 80%
    18:00 +25°C° 0.5 mm 4 mps 758 mmHg 86%
    19:00 +22°C° 0.5 mm 3 mps 758 mmHg 93%
    20:00 +22°C° 1.1 mm 3 mps 758 mmHg 95%
    21:00 +22°C° 1.1 mm 3 mps 758 mmHg 96%
    22:00 +23°C° 1.1 mm 2 mps 758 mmHg 98%
    23:00 +23°C° 1.2 mm 2 mps 757 mmHg 98%

    20 December, Thursday

    Time Temperature Precipitation Wind Pressure Humidity
    00:00 +23°C° 1.2 mm 2 mps 756 mmHg 98%
    01:00 +23°C° 1.2 mm 2 mps 756 mmHg 98%
    02:00 +23°C° 0.4 mm 2 mps 755 mmHg 98%
    03:00 +23°C° 0.4 mm 2 mps 755 mmHg 98%
    04:00 +22°C° 0.4 mm 3 mps 754 mmHg 98%
    05:00 +24°C° 0 mm 3 mps 754 mmHg 94%
    06:00 +26°C° 0 mm 2 mps 754 mmHg 90%
    07:00 +27°C° 0 mm 2 mps 754 mmHg 86%
    08:00 +30°C° 0 mm 3 mps 754 mmHg 70%
    09:00 +34°C° 0 mm 4 mps 753 mmHg 55%
    10:00 +39°C° 0 mm 5 mps 753 mmHg 39%
    11:00 +41°C° 0 mm 5 mps 752 mmHg 34%
    12:00 +43°C° 0 mm 5 mps 751 mmHg 29%
    13:00 +46°C° 0 mm 6 mps 750 mmHg 23%
    14:00 +45°C° 0 mm 5 mps 749 mmHg 24%
    15:00 +43°C° 0 mm 5 mps 748 mmHg 25%
    16:00 +43°C° 0 mm 5 mps 748 mmHg 26%
    17:00 +40°C° 0 mm 4 mps 748 mmHg 30%
    18:00 +37°C° 0 mm 4 mps 748 mmHg 35%
    19:00 +35°C° 0 mm 4 mps 749 mmHg 39%
    20:00 +33°C° 0 mm 5 mps 749 mmHg 45%
    21:00 +30°C° 0 mm 6 mps 750 mmHg 52%
    22:00 +28°C° 0 mm 7 mps 751 mmHg 58%
    23:00 +26°C° 0 mm 6 mps 751 mmHg 68%
    Show more